Time,TemperatureF,DewpointF,PressureIn,WindDirection,WindDirectionDegrees,WindSpeedMPH,WindSpeedGustMPH,Humidity,HourlyPrecipIn,Conditions,Clouds,dailyrainin,SoftwareType,DateUTC
2013-04-25 00:05:00,44.2,41.5,30.16,NW,310,1.0,2.0,90,0.00,,,0.00,Wunderground v.1.15,2013-04-25 04:05:00,
2013-04-25 00:10:00,44.2,41.5,30.16,WNW,295,1.0,1.0,90,0.00,,,0.00,Wunderground v.1.15,2013-04-25 04:10:00,
2013-04-25 00:20:00,43.8,40.8,30.16,WSW,237,1.0,1.0,89,0.00,,,0.00,Wunderground v.1.15,2013-04-25 04:20:00,
2013-04-25 00:30:00,43.3,40.3,30.17,West,261,1.0,5.0,89,0.00,,,0.00,Wunderground v.1.15,2013-04-25 04:30:00,
2013-04-25 00:35:00,42.9,39.6,30.17,SW,215,2.0,5.0,88,0.00,,,0.00,Wunderground v.1.15,2013-04-25 04:35:00,
2013-04-25 00:40:00,42.8,39.5,30.17,West,265,2.0,2.0,88,0.00,,,0.00,Wunderground v.1.15,2013-04-25 04:40:00,
2013-04-25 00:50:00,42.3,39.0,30.17,WSW,246,1.0,1.0,88,0.00,,,0.00,Wunderground v.1.15,2013-04-25 04:50:00,
2013-04-25 01:00:00,42.1,38.8,30.18,West,272,0.0,7.0,88,0.00,,,0.00,Wunderground v.1.15,2013-04-25 05:00:00,
2013-04-25 01:05:00,41.9,38.3,30.18,West,271,1.0,7.0,87,0.00,,,0.00,Wunderground v.1.15,2013-04-25 05:05:00,
2013-04-25 01:10:00,41.9,38.6,30.18,West,270,1.0,1.0,88,0.00,,,0.00,Wunderground v.1.15,2013-04-25 05:10:00,
2013-04-25 01:20:00,41.6,38.3,30.18,WSW,254,1.0,1.0,88,0.00,,,0.00,Wunderground v.1.15,2013-04-25 05:20:00,
2013-04-25 01:30:00,41.5,38.2,30.18,West,272,0.0,0.0,88,0.00,,,0.00,Wunderground v.1.15,2013-04-25 05:30:00,
2013-04-25 01:40:00,41.3,38.0,30.18,WNW,286,0.0,0.0,88,0.00,,,0.00,Wunderground v.1.15,2013-04-25 05:40:00,
2013-04-25 01:45:00,41.3,38.0,30.18,WNW,286,0.0,0.0,88,0.00,,,0.00,Wunderground v.1.15,2013-04-25 05:45:00,
2013-04-25 01:50:00,41.2,37.6,30.18,West,265,1.0,1.0,87,0.00,,,0.00,Wunderground v.1.15,2013-04-25 05:50:00,
2013-04-25 02:00:00,41.2,37.0,30.18,West,260,2.0,2.0,85,0.00,,,0.00,Wunderground v.1.15,2013-04-25 06:00:00,
2013-04-25 02:10:00,40.9,36.4,30.18,WNW,302,2.0,2.0,84,0.00,,,0.00,Wunderground v.1.15,2013-04-25 06:10:00,
2013-04-25 02:20:00,40.8,35.7,30.18,WNW,284,3.0,4.0,82,0.00,,,0.00,Wunderground v.1.15,2013-04-25 06:20:00,
2013-04-25 02:25:00,40.8,35.7,30.18,West,279,2.0,4.0,82,0.00,,,0.00,Wunderground v.1.15,2013-04-25 06:25:00,
2013-04-25 02:30:00,40.8,35.4,30.18,NW,308,1.0,1.0,81,0.00,,,0.00,Wunderground v.1.15,2013-04-25 06:30:00,
2013-04-25 02:40:00,40.8,35.4,30.18,WNW,298,2.0,2.0,81,0.00,,,0.00,Wunderground v.1.15,2013-04-25 06:40:00,
2013-04-25 02:50:00,40.8,35.1,30.18,SW,236,1.0,1.0,80,0.00,,,0.00,Wunderground v.1.15,2013-04-25 06:50:00,
2013-04-25 03:00:00,40.6,34.6,30.18,WNW,291,0.0,0.0,79,0.00,,,0.00,Wunderground v.1.15,2013-04-25 07:00:00,
2013-04-25 03:10:00,40.3,34.0,30.19,WNW,292,0.0,0.0,78,0.00,,,0.00,Wunderground v.1.15,2013-04-25 07:10:00,
2013-04-25 03:20:00,40.2,33.9,30.19,WNW,292,0.0,0.0,78,0.00,,,0.00,Wunderground v.1.15,2013-04-25 07:20:00,
2013-04-25 03:30:00,39.9,33.3,30.19,WNW,292,0.0,0.0,77,0.00,,,0.00,Wunderground v.1.15,2013-04-25 07:30:00,
2013-04-25 03:40:00,39.5,32.6,30.19,West,279,0.0,0.0,76,0.00,,,0.00,Wunderground v.1.15,2013-04-25 07:40:00,
2013-04-25 03:50:00,39.1,32.2,30.19,West,279,0.0,0.0,76,0.00,,,0.00,Wunderground v.1.15,2013-04-25 07:50:00,
2013-04-25 03:55:00,38.8,31.9,30.19,West,279,0.0,0.0,76,0.00,,,0.00,Wunderground v.1.15,2013-04-25 07:55:00,
2013-04-25 04:05:00,38.6,31.7,30.20,West,279,0.0,0.0,76,0.00,,,0.00,Wunderground v.1.15,2013-04-25 08:05:00,
2013-04-25 04:10:00,38.5,31.6,30.19,West,279,0.0,0.0,76,0.00,,,0.00,Wunderground v.1.15,2013-04-25 08:10:00,
2013-04-25 04:15:00,38.2,31.6,30.20,West,279,0.0,0.0,77,0.00,,,0.00,Wunderground v.1.15,2013-04-25 08:15:00,
2013-04-25 04:25:00,38.0,31.1,30.20,West,280,0.0,0.0,76,0.00,,,0.00,Wunderground v.1.15,2013-04-25 08:25:00,
2013-04-25 04:30:00,37.9,31.3,30.20,West,280,0.0,0.0,77,0.00,,,0.00,Wunderground v.1.15,2013-04-25 08:30:00,
2013-04-25 04:40:00,37.8,31.2,30.21,West,280,0.0,0.0,77,0.00,,,0.00,Wunderground v.1.15,2013-04-25 08:40:00,
2013-04-25 04:50:00,37.6,31.4,30.21,West,280,0.0,0.0,78,0.00,,,0.00,Wunderground v.1.15,2013-04-25 08:50:00,
2013-04-25 04:55:00,38.0,31.4,30.21,West,269,1.0,2.0,77,0.00,,,0.00,Wunderground v.1.15,2013-04-25 08:55:00,
2013-04-25 05:05:00,38.6,31.7,30.21,West,273,0.0,1.0,76,0.00,,,0.00,Wunderground v.1.15,2013-04-25 09:05:00,
2013-04-25 05:10:00,38.6,32.0,30.21,West,273,0.0,0.0,77,0.00,,,0.00,Wunderground v.1.15,2013-04-25 09:10:00,
2013-04-25 05:20:00,38.8,31.9,30.21,NW,304,0.0,0.0,76,0.00,,,0.00,Wunderground v.1.15,2013-04-25 09:20:00,
2013-04-25 05:25:00,38.6,31.7,30.21,NW,304,0.0,0.0,76,0.00,,,0.00,Wunderground v.1.15,2013-04-25 09:25:00,
2013-04-25 05:30:00,38.3,31.4,30.21,NW,304,0.0,0.0,76,0.00,,,0.00,Wunderground v.1.15,2013-04-25 09:30:00,
2013-04-25 05:40:00,37.9,31.0,30.21,NW,304,0.0,0.0,76,0.00,,,0.00,Wunderground v.1.15,2013-04-25 09:40:00,
2013-04-25 05:45:00,37.8,30.9,30.21,NW,304,0.0,0.0,76,0.00,,,0.00,Wunderground v.1.15,2013-04-25 09:45:00,
2013-04-25 05:50:00,37.6,30.7,30.21,NW,304,0.0,0.0,76,0.00,,,0.00,Wunderground v.1.15,2013-04-25 09:50:00,
2013-04-25 06:00:00,37.2,30.7,30.20,NW,304,0.0,0.0,77,0.00,,,0.00,Wunderground v.1.15,2013-04-25 10:00:00,
2013-04-25 06:10:00,36.6,30.4,30.21,NW,304,0.0,0.0,78,0.00,,,0.00,Wunderground v.1.15,2013-04-25 10:10:00,
2013-04-25 06:20:00,35.9,30.6,30.21,NW,304,0.0,0.0,81,0.00,,,0.00,Wunderground v.1.15,2013-04-25 10:20:00,
2013-04-25 06:25:00,35.6,30.3,30.21,NW,304,0.0,0.0,81,0.00,,,0.00,Wunderground v.1.15,2013-04-25 10:25:00,
2013-04-25 06:30:00,35.2,30.0,30.21,NW,304,0.0,0.0,81,0.00,,,0.00,Wunderground v.1.15,2013-04-25 10:30:00,
2013-04-25 06:40:00,34.4,30.1,30.21,NW,304,0.0,0.0,84,0.00,,,0.00,Wunderground v.1.15,2013-04-25 10:40:00,
2013-04-25 06:50:00,34.0,30.0,30.22,NW,304,0.0,0.0,85,0.00,,,0.00,Wunderground v.1.15,2013-04-25 10:50:00,
2013-04-25 07:00:00,33.5,30.0,30.22,NW,304,0.0,0.0,87,0.00,,,0.00,Wunderground v.1.15,2013-04-25 11:00:00,
2013-04-25 07:10:00,33.2,29.8,30.22,NW,304,0.0,0.0,87,0.00,,,0.00,Wunderground v.1.15,2013-04-25 11:10:00,
2013-04-25 07:20:00,33.7,30.5,30.23,NW,304,0.0,0.0,88,0.00,,,0.00,Wunderground v.1.15,2013-04-25 11:20:00,
2013-04-25 07:25:00,33.8,30.9,30.24,NW,304,0.0,0.0,89,0.00,,,0.00,Wunderground v.1.15,2013-04-25 11:25:00,
2013-04-25 07:30:00,34.4,31.5,30.24,NW,304,0.0,0.0,89,0.00,,,0.00,Wunderground v.1.15,2013-04-25 11:30:00,
2013-04-25 07:40:00,35.5,32.3,30.24,NW,304,0.0,0.0,88,0.00,,,0.00,Wunderground v.1.15,2013-04-25 11:40:00,
2013-04-25 07:45:00,36.0,32.5,30.24,NW,304,0.0,0.0,87,0.00,,,0.00,Wunderground v.1.15,2013-04-25 11:45:00,
2013-04-25 07:55:00,37.6,33.5,30.24,NW,304,0.0,0.0,85,0.00,,,0.00,Wunderground v.1.15,2013-04-25 11:55:00,
2013-04-25 08:05:00,39.1,33.8,30.25,NW,304,0.0,0.0,81,0.00,,,0.00,Wunderground v.1.15,2013-04-25 12:05:00,
2013-04-25 08:10:00,39.6,33.6,30.25,NW,304,0.0,0.0,79,0.00,,,0.00,Wunderground v.1.15,2013-04-25 12:10:00,
2013-04-25 08:20:00,40.3,33.0,30.26,WNW,287,0.0,1.0,75,0.00,,,0.00,Wunderground v.1.15,2013-04-25 12:20:00,
2013-04-25 08:30:00,40.3,33.0,30.26,WNW,290,0.0,1.0,75,0.00,,,0.00,Wunderground v.1.15,2013-04-25 12:30:00,
2013-04-25 08:40:00,40.6,32.6,30.27,WNW,290,0.0,0.0,73,0.00,,,0.00,Wunderground v.1.15,2013-04-25 12:40:00,
2013-04-25 08:50:00,40.8,32.5,30.27,WNW,290,0.0,0.0,72,0.00,,,0.00,Wunderground v.1.15,2013-04-25 12:50:00,
2013-04-25 09:00:00,41.5,33.1,30.27,WNW,291,0.0,0.0,72,0.00,,,0.00,Wunderground v.1.15,2013-04-25 13:00:00,
2013-04-25 09:05:00,41.5,32.4,30.27,WNW,296,0.0,0.0,70,0.00,,,0.00,Wunderground v.1.15,2013-04-25 13:05:00,
2013-04-25 09:15:00,41.9,32.5,30.27,WNW,296,0.0,0.0,69,0.00,,,0.00,Wunderground v.1.15,2013-04-25 13:15:00,
2013-04-25 09:20:00,41.6,32.5,30.27,WNW,296,0.0,0.0,70,0.00,,,0.00,Wunderground v.1.15,2013-04-25 13:20:00,
2013-04-25 09:25:00,41.6,32.5,30.27,WNW,296,0.0,0.0,70,0.00,,,0.00,Wunderground v.1.15,2013-04-25 13:25:00,
2013-04-25 09:30:00,42.2,33.8,30.27,WNW,296,0.0,0.0,72,0.00,,,0.00,Wunderground v.1.15,2013-04-25 13:30:00,
2013-04-25 09:40:00,42.9,34.1,30.27,WNW,296,0.0,0.0,71,0.00,,,0.00,Wunderground v.1.15,2013-04-25 13:40:00,
2013-04-25 09:50:00,43.5,33.3,30.27,WNW,296,0.0,0.0,67,0.00,,,0.00,Wunderground v.1.15,2013-04-25 13:50:00,
2013-04-25 10:00:00,43.9,34.0,30.28,WNW,296,0.0,1.0,68,0.00,,,0.00,Wunderground v.1.15,2013-04-25 14:00:00,
2013-04-25 10:10:00,44.3,33.3,30.29,WNW,298,0.0,0.0,65,0.00,,,0.00,Wunderground v.1.15,2013-04-25 14:10:00,
2013-04-25 10:15:00,44.8,34.9,30.28,WNW,298,0.0,0.0,68,0.00,,,0.00,Wunderground v.1.15,2013-04-25 14:15:00,
2013-04-25 10:20:00,45.1,35.2,30.29,SW,215,0.0,0.0,68,0.00,,,0.00,Wunderground v.1.15,2013-04-25 14:20:00,
2013-04-25 10:30:00,44.9,35.0,30.29,SSW,203,1.0,1.0,68,0.00,,,0.00,Wunderground v.1.15,2013-04-25 14:30:00,
2013-04-25 10:40:00,44.6,33.9,30.30,SSW,199,0.0,0.0,66,0.00,,,0.00,Wunderground v.1.15,2013-04-25 14:40:00,
2013-04-25 10:50:00,45.4,35.1,30.30,SSW,199,0.0,0.0,67,0.00,,,0.00,Wunderground v.1.15,2013-04-25 14:50:00,
2013-04-25 11:00:00,46.5,36.1,30.31,South,191,0.0,0.0,67,0.00,,,0.00,Wunderground v.1.15,2013-04-25 15:00:00,
2013-04-25 11:10:00,47.4,37.0,30.31,South,191,0.0,0.0,67,0.00,,,0.00,Wunderground v.1.15,2013-04-25 15:10:00,
2013-04-25 11:20:00,47.4,36.6,30.31,SW,226,1.0,2.0,66,0.00,,,0.00,Wunderground v.1.15,2013-04-25 15:20:00,
2013-04-25 11:25:00,47.6,37.6,30.31,SW,219,1.0,2.0,68,0.00,,,0.00,Wunderground v.1.15,2013-04-25 15:25:00,
2013-04-25 11:30:00,47.6,37.2,30.31,SW,217,1.0,1.0,67,0.00,,,0.00,Wunderground v.1.15,2013-04-25 15:30:00,
2013-04-25 11:40:00,48.2,36.6,30.31,SW,219,1.0,1.0,64,0.00,,,0.00,Wunderground v.1.15,2013-04-25 15:40:00,
2013-04-25 11:45:00,48.2,36.6,30.31,South,188,1.0,1.0,64,0.00,,,0.00,Wunderground v.1.15,2013-04-25 15:45:00,
2013-04-25 11:50:00,48.3,36.3,30.31,NW,320,0.0,0.0,63,0.00,,,0.00,Wunderground v.1.15,2013-04-25 15:50:00,
2013-04-25 11:55:00,48.6,37.0,30.31,SW,232,0.0,4.0,64,0.00,,,0.00,Wunderground v.1.15,2013-04-25 15:55:00,
2013-04-25 12:00:00,48.5,37.3,30.31,South,187,1.0,1.0,65,0.00,,,0.00,Wunderground v.1.15,2013-04-25 16:00:00,
2013-04-25 12:10:00,49.4,36.9,30.31,SSW,205,1.0,1.0,62,0.00,,,0.00,Wunderground v.1.15,2013-04-25 16:10:00,
2013-04-25 12:20:00,49.6,37.1,30.31,SSW,213,1.0,1.0,62,0.00,,,0.00,Wunderground v.1.15,2013-04-25 16:20:00,
2013-04-25 12:30:00,50.1,38.0,30.31,SSW,200,1.0,1.0,63,0.00,,,0.00,Wunderground v.1.15,2013-04-25 16:30:00,
2013-04-25 12:40:00,50.5,37.5,30.31,SSE,162,0.0,0.0,61,0.00,,,0.00,Wunderground v.1.15,2013-04-25 16:40:00,
2013-04-25 12:50:00,50.8,36.5,30.31,South,188,2.0,2.0,58,0.00,,,0.00,Wunderground v.1.15,2013-04-25 16:50:00,
2013-04-25 12:55:00,51.3,36.6,30.31,SW,231,3.0,5.0,57,0.00,,,0.00,Wunderground v.1.15,2013-04-25 16:55:00,
2013-04-25 13:05:00,51.6,38.2,30.31,South,182,1.0,2.0,60,0.00,,,0.00,Wunderground v.1.15,2013-04-25 17:05:00,
2013-04-25 13:10:00,51.9,38.0,30.31,South,180,1.0,1.0,59,0.00,,,0.00,Wunderground v.1.15,2013-04-25 17:10:00,
2013-04-25 13:15:00,52.6,38.2,30.31,SSW,208,3.0,6.0,58,0.00,,,0.00,Wunderground v.1.15,2013-04-25 17:15:00,
2013-04-25 13:25:00,52.9,38.1,30.31,SW,226,4.0,6.0,57,0.00,,,0.00,Wunderground v.1.15,2013-04-25 17:25:00,
2013-04-25 13:35:00,53.3,38.9,30.30,SSE,167,3.0,4.0,58,0.00,,,0.00,Wunderground v.1.15,2013-04-25 17:35:00,
2013-04-25 13:45:00,54.1,39.2,30.30,SSW,192,2.0,5.0,57,0.00,,,0.00,Wunderground v.1.15,2013-04-25 17:45:00,
2013-04-25 13:55:00,53.8,38.9,30.30,South,187,2.0,8.0,57,0.00,,,0.00,Wunderground v.1.15,2013-04-25 17:55:00,
2013-04-25 14:00:00,53.9,38.6,30.30,South,179,2.0,4.0,56,0.00,,,0.00,Wunderground v.1.15,2013-04-25 18:00:00,
2013-04-25 14:10:00,54.7,39.8,30.30,SSW,194,3.0,4.0,57,0.00,,,0.00,Wunderground v.1.15,2013-04-25 18:10:00,
2013-04-25 14:15:00,54.8,38.5,30.30,South,186,3.0,4.0,54,0.00,,,0.00,Wunderground v.1.15,2013-04-25 18:15:00,
2013-04-25 14:20:00,55.3,40.3,30.30,SW,221,4.0,5.0,57,0.00,,,0.00,Wunderground v.1.15,2013-04-25 18:20:00,
2013-04-25 14:30:00,55.6,40.6,30.30,South,188,5.0,5.0,57,0.00,,,0.00,Wunderground v.1.15,2013-04-25 18:30:00,
2013-04-25 14:35:00,55.6,38.2,30.30,SSW,198,2.0,5.0,52,0.00,,,0.00,Wunderground v.1.15,2013-04-25 18:35:00,
2013-04-25 14:40:00,56.0,38.6,30.30,SSE,165,2.0,3.0,52,0.00,,,0.00,Wunderground v.1.15,2013-04-25 18:40:00,
2013-04-25 14:45:00,56.2,38.8,30.29,SSW,194,3.0,4.0,52,0.00,,,0.00,Wunderground v.1.15,2013-04-25 18:45:00,
2013-04-25 14:50:00,56.6,39.7,30.29,SSE,163,2.0,7.0,53,0.00,,,0.00,Wunderground v.1.15,2013-04-25 18:50:00,
2013-04-25 15:00:00,56.3,38.4,30.29,SSW,208,4.0,4.0,51,0.00,,,0.00,Wunderground v.1.15,2013-04-25 19:00:00,
2013-04-25 15:10:00,56.9,37.4,30.29,SW,226,3.0,5.0,48,0.00,,,0.00,Wunderground v.1.15,2013-04-25 19:10:00,
2013-04-25 15:20:00,57.2,37.7,30.29,SSE,165,3.0,6.0,48,0.00,,,0.00,Wunderground v.1.15,2013-04-25 19:20:00,
2013-04-25 15:30:00,57.6,36.4,30.29,SSW,213,3.0,3.0,45,0.00,,,0.00,Wunderground v.1.15,2013-04-25 19:30:00,
2013-04-25 15:35:00,57.8,39.3,30.28,SSW,212,3.0,3.0,50,0.00,,,0.00,Wunderground v.1.15,2013-04-25 19:35:00,
2013-04-25 15:40:00,58.1,38.5,30.28,SW,230,3.0,5.0,48,0.00,,,0.00,Wunderground v.1.15,2013-04-25 19:40:00,
2013-04-25 15:50:00,58.4,37.7,30.28,SSW,192,5.0,5.0,46,0.00,,,0.00,Wunderground v.1.15,2013-04-25 19:50:00,
2013-04-25 16:00:00,58.6,39.0,30.27,South,180,3.0,5.0,48,0.00,,,0.00,Wunderground v.1.15,2013-04-25 20:00:00,
2013-04-25 16:05:00,58.4,35.4,30.27,SSW,195,4.0,5.0,42,0.00,,,0.00,Wunderground v.1.15,2013-04-25 20:05:00,
2013-04-25 16:10:00,58.6,36.2,30.27,SW,226,4.0,4.0,43,0.00,,,0.00,Wunderground v.1.15,2013-04-25 20:10:00,
2013-04-25 16:20:00,59.2,39.0,30.27,SSW,203,2.0,4.0,47,0.00,,,0.00,Wunderground v.1.15,2013-04-25 20:20:00,
2013-04-25 16:30:00,59.5,39.2,30.26,South,174,3.0,3.0,47,0.00,,,0.00,Wunderground v.1.15,2013-04-25 20:30:00,
2013-04-25 16:40:00,59.3,37.4,30.26,SSW,193,4.0,4.0,44,0.00,,,0.00,Wunderground v.1.15,2013-04-25 20:40:00,
2013-04-25 18:30:00,58.9,36.4,30.27,SSW,211,3.0,5.0,43,0.00,,,0.00,Wunderground v.1.15,2013-04-25 22:30:00,
2013-04-25 18:40:00,58.4,37.7,30.27,SSW,196,5.0,5.0,46,0.00,,,0.00,Wunderground v.1.15,2013-04-25 22:40:00,
2013-04-25 18:45:00,58.1,36.9,30.27,South,186,4.0,5.0,45,0.00,,,0.00,Wunderground v.1.15,2013-04-25 22:45:00,
2013-04-25 18:55:00,57.6,35.8,30.27,South,186,4.0,5.0,44,0.00,,,0.00,Wunderground v.1.15,2013-04-25 22:55:00,
2013-04-25 19:00:00,57.3,35.6,30.27,South,182,3.0,3.0,44,0.00,,,0.00,Wunderground v.1.15,2013-04-25 23:00:00,
2013-04-25 19:10:00,56.7,35.0,30.27,SSW,202,3.0,4.0,44,0.00,,,0.00,Wunderground v.1.15,2013-04-25 23:10:00,
2013-04-25 19:15:00,56.5,35.4,30.27,SSW,196,3.0,5.0,45,0.00,,,0.00,Wunderground v.1.15,2013-04-25 23:15:00,
2013-04-25 19:20:00,56.3,35.2,30.27,SSW,196,3.0,6.0,45,0.00,,,0.00,Wunderground v.1.15,2013-04-25 23:20:00,
2013-04-25 19:30:00,55.9,34.8,30.27,South,188,2.0,2.0,45,0.00,,,0.00,Wunderground v.1.15,2013-04-25 23:30:00,
2013-04-25 19:35:00,55.4,35.5,30.27,South,184,2.0,2.0,47,0.00,,,0.00,Wunderground v.1.15,2013-04-25 23:35:00,
2013-04-25 19:40:00,55.1,35.2,30.27,South,185,2.0,2.0,47,0.00,,,0.00,Wunderground v.1.15,2013-04-25 23:40:00,
2013-04-25 19:50:00,54.5,34.7,30.27,SSW,193,1.0,1.0,47,0.00,,,0.00,Wunderground v.1.15,2013-04-25 23:50:00,
2013-04-25 20:00:00,53.8,35.1,30.28,SSW,193,0.0,0.0,49,0.00,,,0.00,Wunderground v.1.15,2013-04-26 00:00:00,
2013-04-25 20:10:00,52.5,34.9,30.29,SSW,193,0.0,0.0,51,0.00,,,0.00,Wunderground v.1.15,2013-04-26 00:10:00,
2013-04-25 20:20:00,51.3,35.2,30.29,SSW,193,0.0,0.0,54,0.00,,,0.00,Wunderground v.1.15,2013-04-26 00:20:00,
2013-04-25 20:25:00,50.7,36.0,30.29,SSW,193,0.0,0.0,57,0.00,,,0.00,Wunderground v.1.15,2013-04-26 00:25:00,
2013-04-25 20:35:00,49.5,35.3,30.30,SSW,193,0.0,0.0,58,0.00,,,0.00,Wunderground v.1.15,2013-04-26 00:35:00,
2013-04-25 20:45:00,48.6,34.9,30.30,SSW,193,0.0,0.0,59,0.00,,,0.00,Wunderground v.1.15,2013-04-26 00:45:00,
2013-04-25 20:50:00,48.2,35.0,30.30,SSW,193,0.0,0.0,60,0.00,,,0.00,Wunderground v.1.15,2013-04-26 00:50:00,
2013-04-25 21:00:00,47.7,34.9,30.31,SSW,193,0.0,0.0,61,0.00,,,0.00,Wunderground v.1.15,2013-04-26 01:00:00,
2013-04-25 21:10:00,47.3,34.5,30.32,SSW,193,0.0,0.0,61,0.00,,,0.00,Wunderground v.1.15,2013-04-26 01:10:00,
2013-04-25 21:15:00,47.0,34.2,30.32,SSW,193,0.0,0.0,61,0.00,,,0.00,Wunderground v.1.15,2013-04-26 01:15:00,
2013-04-25 21:20:00,46.8,34.5,30.33,SSW,193,0.0,0.0,62,0.00,,,0.00,Wunderground v.1.15,2013-04-26 01:20:00,
2013-04-25 21:30:00,47.7,33.2,30.33,SW,222,0.0,0.0,57,0.00,,,0.00,Wunderground v.1.15,2013-04-26 01:30:00,
2013-04-25 21:40:00,47.9,32.9,30.33,SW,222,0.0,0.0,56,0.00,,,0.00,Wunderground v.1.15,2013-04-26 01:40:00,
2013-04-25 21:50:00,47.3,34.1,30.33,SW,222,0.0,0.0,60,0.00,,,0.00,Wunderground v.1.15,2013-04-26 01:50:00,
2013-04-25 22:00:00,46.2,34.3,30.33,SW,222,0.0,0.0,63,0.00,,,0.00,Wunderground v.1.15,2013-04-26 02:00:00,
2013-04-25 22:10:00,45.2,34.5,30.34,SW,222,0.0,0.0,66,0.00,,,0.00,Wunderground v.1.15,2013-04-26 02:10:00,
2013-04-25 22:20:00,44.1,33.8,30.34,SW,222,0.0,0.0,67,0.00,,,0.00,Wunderground v.1.15,2013-04-26 02:20:00,
2013-04-25 22:26:00,43.5,33.6,30.35,SW,222,0.0,0.0,68,0.00,,,0.00,Wunderground v.1.15,2013-04-26 02:26:00,
2013-04-25 22:35:00,42.6,33.5,30.34,SW,222,0.0,0.0,70,0.00,,,0.00,Wunderground v.1.15,2013-04-26 02:35:00,
2013-04-25 22:40:00,42.2,33.5,30.35,SW,222,0.0,0.0,71,0.00,,,0.00,Wunderground v.1.15,2013-04-26 02:40:00,
2013-04-25 22:45:00,42.1,32.3,30.35,SW,223,0.0,0.0,68,0.00,,,0.00,Wunderground v.1.15,2013-04-26 02:45:00,
2013-04-25 22:55:00,42.6,31.7,30.35,WSW,238,0.0,0.0,65,0.00,,,0.00,Wunderground v.1.15,2013-04-26 02:55:00,
2013-04-25 23:00:00,42.8,32.6,30.35,WSW,238,0.0,0.0,67,0.00,,,0.00,Wunderground v.1.15,2013-04-26 03:00:00,
2013-04-25 23:10:00,42.2,33.5,30.35,WSW,238,0.0,0.0,71,0.00,,,0.00,Wunderground v.1.15,2013-04-26 03:10:00,
2013-04-25 23:20:00,41.3,33.0,30.35,WSW,238,0.0,0.0,72,0.00,,,0.00,Wunderground v.1.15,2013-04-26 03:20:00,
2013-04-25 23:30:00,40.6,33.3,30.35,WSW,238,0.0,0.0,75,0.00,,,0.00,Wunderground v.1.15,2013-04-26 03:30:00,
2013-04-25 23:35:00,40.2,33.2,30.36,WSW,238,0.0,0.0,76,0.00,,,0.00,Wunderground v.1.15,2013-04-26 03:35:00,
2013-04-25 23:45:00,39.9,32.9,30.35,WSW,238,0.0,0.0,76,0.00,,,0.00,Wunderground v.1.15,2013-04-26 03:45:00,
2013-04-25 23:50:00,39.8,32.2,30.36,WSW,238,0.0,0.0,74,0.00,,,0.00,Wunderground v.1.15,2013-04-26 03:50:00,